Location: Brookview Estates
(36.0476°N, 86.6931°W)
Time: 17:43:21
(UTC+00:00)

Cosmos 1689 Rocket - Pass Details

Date: 30 March 2020
Orbit: 368 x 383 km, 97.5° (Epoch: 25 May)

Event Time Altitude Azimuth Distance (km) Brightness Sun altitude
Exits shadow 10:57:50 10° 236° (SW) 1,439 4.4 -8.3°
Maximum altitude 10:59:21 13° 266° (W) 1,274 4.0 -8.0°
Drops below altitude 10° 11:00:45 10° 293° (WNW) 1,417 4.4 -7.7°
Sets 11:03:37 0° 325° (NW) 2,278 5.7 -7.2°
